Location: Casalecchio di Reno
(44.4760°N, 11.2757°E)
Time: 16:28:36
(UTC+02:00)

DX 1 - Pass Details

Date: 21 June 2024
Orbit: 607 x 619 km, 98.3° (Epoch: 19 July)

Event Time Altitude Azimuth Distance (km) Brightness Sun altitude
Rises 02:22:23 0° 1° (N) 2,878 ? -20.4°
Reaches altitude 10° 02:24:53 10° 347° (NNW) 1,968 ? -20.3°
Maximum altitude 02:28:17 24° 295° (WNW) 1,283 ? -20.1°
Enters shadow 02:29:41 20° 266° (W) 1,422 ? -20.1°
